QPF
0.18 0.19 0.16 0.16 0.18 0.18 0.17 0.17 0.18 0.21 0.22 0.19 0.18 0.18 0.18 0.19 0.21 0.22 0.22 0.22 0.22 0.22 0.21 0.19 0.18 0.16 0.15 0.13 0.11 0.10 0.08 0.08 0.06 0.04 0.03 0.03 0.03 0.02 0.02 0.02 0.01 0.01 0.01
0.20 0.18 0.17 0.19 0.20 0.19 0.18 0.18 0.19 0.21 0.23 0.23 0.23 0.22 0.19 0.18 0.20 0.21 0.21 0.20 0.20 0.20 0.20 0.21 0.21 0.20 0.19 0.17 0.15 0.13 0.11 0.09 0.08 0.07 0.05 0.04 0.03 0.03 0.03 0.02 0.02 0.01 0.01
0.15 0.13 0.13 0.16 0.18 0.20 0.19 0.18 0.19 0.21 0.23 0.25 0.26 0.28 0.27 0.23 0.21 0.21 0.20 0.19 0.18 0.18 0.18 0.19 0.19 0.20 0.20 0.18 0.16 0.14 0.13 0.12 0.10 0.09 0.07 0.06 0.05 0.04 0.03 0.03 0.02 0.01 0.01
0.06 0.07 0.08 0.09 0.11 0.14 0.16 0.16 0.15 0.16 0.19 0.22 0.24 0.26 0.26 0.27 0.25 0.23 0.22 0.22 0.21 0.20 0.20 0.20 0.20 0.20 0.20 0.19 0.19 0.18 0.17 0.17 0.16 0.14 0.11 0.08 0.06 0.05 0.05 0.04 0.03 0.01 0.01
0.04 0.05 0.06 0.06 0.06 0.07 0.10 0.12 0.13 0.13 0.14 0.16 0.18 0.21 0.22 0.23 0.25 0.25 0.24 0.24 0.22 0.21 0.21 0.21 0.21 0.22 0.23 0.22 0.21 0.20 0.19 0.20 0.18 0.15 0.12 0.09 0.07 0.06 0.05 0.04 0.03 0.02 0.02
0.05 0.05 0.06 0.06 0.05 0.04 0.04 0.05 0.07 0.10 0.12 0.13 0.15 0.16 0.17 0.18 0.20 0.21 0.22 0.22 0.23 0.22 0.20 0.19 0.19 0.21 0.21 0.22 0.22 0.22 0.21 0.19 0.17 0.14 0.11 0.08 0.06 0.04 0.04 0.04 0.03 0.03 0.02
0.05 0.03 0.03 0.02 0.04 0.05 0.04 0.04 0.03 0.04 0.06 0.07 0.08 0.09 0.10 0.12 0.15 0.16 0.18 0.18 0.19 0.20 0.19 0.17 0.15 0.14 0.16 0.15 0.18 0.20 0.20 0.19 0.16 0.14 0.12 0.09 0.07 0.06 0.05 0.04 0.03 0.02 0.01
0.03 0.03 0.02 0.02 0.03 0.04 0.03 0.03 0.02 0.02 0.02 0.04 0.05 0.06 0.07 0.09 0.12 0.13 0.14 0.15 0.16 0.17 0.16 0.16 0.15 0.13 0.11 0.11 0.11 0.13 0.13 0.13 0.13 0.11 0.10 0.09 0.08 0.07 0.06 0.05 0.04 0.03 0.02
0.02 0.03 0.03 0.02 0.02 0.02 0.02 0.02 0.02 0.02 0.02 0.03 0.03 0.05 0.06 0.07 0.10 0.12 0.13 0.13 0.15 0.16 0.16 0.16 0.16 0.16 0.15 0.13 0.10 0.09 0.09 0.09 0.10 0.11 0.11 0.10 0.10 0.08 0.06 0.05 0.04 0.04 0.03
0.00 0.01 0.01 0.02 0.02 0.02 0.02 0.02 0.02 0.02 0.02 0.03 0.03 0.04 0.05 0.07 0.08 0.09 0.11 0.12 0.14 0.14 0.14 0.15 0.16 0.16 0.17 0.15 0.11 0.09 0.08 0.07 0.07 0.08 0.08 0.08 0.08 0.07 0.07 0.05 0.04 0.04 0.03
0.00 0.00 0.00 0.00 0.01 0.01 0.02 0.01 0.01 0.02 0.02 0.02 0.02 0.03 0.04 0.05 0.07 0.08 0.09 0.10 0.11 0.12 0.12 0.12 0.13 0.14 0.14 0.13 0.12 0.11 0.09 0.07 0.06 0.07 0.08 0.08 0.07 0.06 0.05 0.05 0.04 0.04 0.03
0.00 0.00 0.00 0.00 0.00 0.00 0.00 0.01 0.01 0.01 0.01 0.01 0.01 0.02 0.03 0.04 0.05 0.07 0.08 0.09 0.10 0.10 0.10 0.10 0.11 0.14 0.15 0.15 0.13 0.12 0.12 0.11 0.08 0.08 0.08 0.08 0.07 0.05 0.05 0.04 0.04 0.04 0.03
0.00 0.00 0.00 0.00 0.00 0.00 0.00 0.00 0.00 0.01 0.01 0.01 0.01 0.01 0.02 0.03 0.04 0.06 0.07 0.09 0.10 0.10 0.10 0.10 0.10 0.11 0.12 0.12 0.13 0.15 0.14 0.11 0.08 0.08 0.08 0.07 0.06 0.06 0.07 0.06 0.05 0.04 0.04
0.00 0.00 0.00 0.00 0.00 0.00 0.00 0.00 0.00 0.01 0.01 0.01 0.02 0.02 0.01 0.02 0.03 0.05 0.07 0.08 0.09 0.10 0.11 0.11 0.11 0.11 0.11 0.10 0.11 0.13 0.12 0.10 0.09 0.07 0.07 0.07 0.08 0.09 0.08 0.07 0.06 0.05 0.04
0.00 0.00 0.00 0.00 0.00 0.00 0.00 0.00 0.00 0.01 0.01 0.01 0.02 0.02 0.02 0.02 0.03 0.05 0.07 0.08 0.08 0.09 0.11 0.12 0.11 0.10 0.09 0.09 0.09 0.10 0.10 0.09 0.09 0.08 0.08 0.10 0.10 0.08 0.07 0.06 0.05 0.04 0.03
0.00 0.00 0.00 0.00 0.00 0.00 0.00 0.00 0.00 0.00 0.01 0.01 0.02 0.02 0.02 0.03 0.03 0.05 0.07 0.08 0.09 0.10 0.11 0.11 0.09 0.08 0.08 0.08 0.08 0.09 0.09 0.08 0.08 0.08 0.08 0.08 0.09 0.08 0.06 0.05 0.05 0.04 0.03
0.00 0.00 0.00 0.00 0.00 0.00 0.00 0.01 0.01 0.00 0.00 0.01 0.01 0.01 0.02 0.02 0.03 0.04 0.05 0.06 0.08 0.09 0.10 0.08 0.07 0.07 0.07 0.08 0.09 0.10 0.09 0.08 0.08 0.09 0.09 0.09 0.08 0.07 0.07 0.05 0.04 0.03 0.02
0.00 0.00 0.00 0.00 0.00 0.01 0.01 0.01 0.01 0.02 0.01 0.01 0.01 0.01 0.02 0.02 0.03 0.03 0.04 0.05 0.06 0.07 0.06 0.06 0.06 0.07 0.07 0.08 0.09 0.10 0.11 0.11 0.10 0.09 0.09 0.09 0.08 0.07 0.06 0.05 0.04 0.03 0.02
0.00 0.00 0.00 0.00 0.00 0.01 0.01 0.01 0.01 0.02 0.02 0.01 0.01 0.01 0.01 0.02 0.02 0.03 0.04 0.04 0.04 0.04 0.05 0.05 0.06 0.07 0.07 0.08 0.09 0.10 0.11 0.11 0.11 0.11 0.10 0.09 0.08 0.08 0.06 0.05 0.04 0.03 0.02
0.00 0.00 0.00 0.00 0.01 0.01 0.01 0.01 0.01 0.02 0.02 0.01 0.01 0.01 0.02 0.02 0.03 0.03 0.03 0.03 0.04 0.04 0.04 0.05 0.05 0.06 0.07 0.07 0.08 0.09 0.10 0.11 0.12 0.12 0.11 0.10 0.09 0.08 0.07 0.05 0.04 0.03 0.02
0.00 0.00 0.00 0.00 0.00 0.01 0.01 0.01 0.01 0.02 0.02 0.02 0.01 0.01 0.03 0.04 0.04 0.04 0.04 0.04 0.04 0.04 0.05 0.05 0.05 0.06 0.07 0.07 0.07 0.08 0.08 0.09 0.10 0.10 0.09 0.09 0.09 0.08 0.07 0.06 0.05 0.03 0.02
0.00 0.00 0.00 0.00 0.01 0.01 0.01 0.01 0.01 0.02 0.02 0.02 0.01 0.01 0.02 0.03 0.04 0.04 0.04 0.04 0.04 0.05 0.05 0.05 0.05 0.05 0.06 0.07 0.07 0.07 0.08 0.08 0.08 0.08 0.08 0.08 0.08 0.08 0.08 0.07 0.05 0.04 0.03
0.00 0.00 0.00 0.00 0.01 0.01 0.01 0.01 0.01 0.02 0.02 0.02 0.02 0.02 0.02 0.03 0.04 0.05 0.05 0.05 0.05 0.05 0.05 0.05 0.05 0.05 0.05 0.06 0.06 0.07 0.08 0.08 0.07 0.08 0.09 0.09 0.08 0.08 0.07 0.06 0.05 0.04 0.03
0.00 0.01 0.01 0.01 0.01 0.01 0.01 0.01 0.01 0.01 0.02 0.02 0.02 0.02 0.03 0.04 0.05 0.06 0.06 0.06 0.06 0.06 0.06 0.06 0.06 0.06 0.06 0.06 0.06 0.07 0.08 0.08 0.09 0.09 0.09 0.09 0.08 0.07 0.07 0.06 0.05 0.04 0.03
0.00 0.01 0.01 0.01 0.01 0.01 0.01 0.01 0.01 0.01 0.02 0.02 0.02 0.03 0.03 0.04 0.05 0.06 0.06 0.07 0.07 0.06 0.06 0.06 0.06 0.07 0.07 0.07 0.07 0.07 0.08 0.09 0.10 0.09 0.09 0.09 0.08 0.07 0.06 0.05 0.05 0.04 0.03
0.00 0.01 0.01 0.01 0.01 0.01 0.01 0.01 0.01 0.02 0.02 0.02 0.03 0.03 0.03 0.04 0.04 0.05 0.06 0.06 0.06 0.06 0.06 0.06 0.07 0.07 0.07 0.06 0.06 0.07 0.08 0.09 0.09 0.09 0.08 0.08 0.07 0.06 0.06 0.06 0.05 0.04 0.04
MSLP
1014.49 1014.11 1013.70 1013.24 1012.74 1012.21 1011.67 1011.14 1010.64 1010.17 1009.75 1009.35 1008.98 1008.64 1008.31 1008.01 1007.75 1007.55 1007.43 1007.41 1007.48 1007.64 1007.87 1008.15 1008.45 1008.75 1009.05 1009.34 1009.64 1009.98 1010.39 1010.88 1011.45 1012.10 1012.79 1013.49 1014.16 1014.76 1015.27 1015.68 1016.00 1016.27 1016.52
1015.57 1015.18 1014.75 1014.28 1013.78 1013.26 1012.73 1012.20 1011.69 1011.21 1010.75 1010.30 1009.86 1009.44 1009.02 1008.62 1008.25 1007.94 1007.70 1007.53 1007.46 1007.45 1007.51 1007.61 1007.73 1007.85 1007.99 1008.15 1008.35 1008.64 1009.02 1009.52 1010.14 1010.87 1011.67 1012.49 1013.30 1014.04 1014.70 1015.24 1015.70 1016.07 1016.41
1016.43 1016.04 1015.62 1015.17 1014.70 1014.22 1013.73 1013.24 1012.75 1012.28 1011.81 1011.34 1010.86 1010.37 1009.88 1009.40 1008.94 1008.52 1008.16 1007.87 1007.65 1007.48 1007.36 1007.27 1007.20 1007.15 1007.11 1007.11 1007.19 1007.38 1007.71 1008.18 1008.82 1009.58 1010.45 1011.37 1012.29 1013.16 1013.94 1014.63 1015.21 1015.70 1016.13
1017.06 1016.68 1016.29 1015.88 1015.46 1015.03 1014.59 1014.16 1013.72 1013.28 1012.83 1012.35 1011.85 1011.33 1010.79 1010.24 1009.71 1009.20 1008.75 1008.34 1007.99 1007.69 1007.41 1007.15 1006.90 1006.67 1006.46 1006.31 1006.25 1006.32 1006.56 1006.98 1007.58 1008.35 1009.24 1010.21 1011.20 1012.16 1013.05 1013.85 1014.55 1015.15 1015.69
1017.49 1017.13 1016.77 1016.40 1016.03 1015.66 1015.29 1014.92 1014.54 1014.14 1013.71 1013.25 1012.75 1012.21 1011.63 1011.05 1010.46 1009.90 1009.36 1008.87 1008.42 1008.00 1007.60 1007.20 1006.80 1006.41 1006.06 1005.76 1005.57 1005.53 1005.66 1005.99 1006.53 1007.26 1008.13 1009.10 1010.12 1011.13 1012.09 1012.97 1013.76 1014.47 1015.11
1017.79 1017.45 1017.11 1016.77 1016.44 1016.12 1015.81 1015.49 1015.16 1014.81 1014.42 1013.98 1013.49 1012.94 1012.36 1011.75 1011.13 1010.52 1009.94 1009.39 1008.86 1008.36 1007.86 1007.36 1006.86 1006.35 1005.88 1005.47 1005.17 1005.02 1005.05 1005.29 1005.75 1006.40 1007.22 1008.16 1009.16 1010.17 1011.16 1012.09 1012.95 1013.73 1014.45
1018.03 1017.70 1017.37 1017.05 1016.74 1016.45 1016.17 1015.89 1015.61 1015.29 1014.94 1014.52 1014.04 1013.51 1012.92 1012.30 1011.66 1011.03 1010.41 1009.82 1009.25 1008.69 1008.14 1007.57 1007.00 1006.43 1005.88 1005.40 1005.02 1004.79 1004.74 1004.90 1005.27 1005.84 1006.58 1007.46 1008.41 1009.39 1010.37 1011.31 1012.19 1013.03 1013.80
1018.26 1017.92 1017.58 1017.25 1016.95 1016.66 1016.40 1016.14 1015.88 1015.59 1015.26 1014.87 1014.41 1013.89 1013.31 1012.68 1012.04 1011.39 1010.76 1010.14 1009.54 1008.95 1008.36 1007.77 1007.16 1006.56 1005.99 1005.47 1005.05 1004.77 1004.67 1004.77 1005.07 1005.57 1006.24 1007.04 1007.93 1008.86 1009.80 1010.71 1011.60 1012.44 1013.24
1018.49 1018.14 1017.77 1017.42 1017.09 1016.79 1016.52 1016.27 1016.01 1015.74 1015.43 1015.05 1014.61 1014.10 1013.52 1012.91 1012.26 1011.61 1010.96 1010.33 1009.71 1009.11 1008.51 1007.90 1007.29 1006.68 1006.11 1005.59 1005.18 1004.89 1004.77 1004.84 1005.11 1005.55 1006.17 1006.91 1007.73 1008.60 1009.48 1010.35 1011.20 1012.02 1012.81
1018.71 1018.32 1017.92 1017.53 1017.17 1016.84 1016.55 1016.28 1016.02 1015.75 1015.45 1015.09 1014.66 1014.16 1013.60 1012.99 1012.35 1011.69 1011.04 1010.40 1009.77 1009.15 1008.54 1007.94 1007.33 1006.75 1006.19 1005.70 1005.31 1005.04 1004.94 1005.01 1005.26 1005.69 1006.27 1006.97 1007.75 1008.56 1009.39 1010.21 1011.00 1011.77 1012.52
1018.89 1018.46 1018.02 1017.59 1017.18 1016.82 1016.49 1016.20 1015.92 1015.64 1015.34 1014.99 1014.57 1014.09 1013.54 1012.94 1012.31 1011.66 1011.01 1010.36 1009.73 1009.11 1008.49 1007.89 1007.29 1006.72 1006.19 1005.73 1005.37 1005.14 1005.07 1005.17 1005.44 1005.88 1006.45 1007.14 1007.89 1008.67 1009.46 1010.22 1010.96 1011.67 1012.36
1018.99 1018.54 1018.06 1017.58 1017.13 1016.72 1016.35 1016.03 1015.73 1015.43 1015.12 1014.77 1014.36 1013.89 1013.37 1012.79 1012.17 1011.54 1010.89 1010.25 1009.62 1008.99 1008.37 1007.77 1007.18 1006.61 1006.10 1005.66 1005.33 1005.14 1005.10 1005.23 1005.54 1006.00 1006.59 1007.29 1008.04 1008.81 1009.58 1010.31 1011.01 1011.67 1012.28
1019.02 1018.52 1018.01 1017.49 1017.00 1016.55 1016.15 1015.78 1015.45 1015.13 1014.80 1014.44 1014.04 1013.59 1013.08 1012.53 1011.95 1011.34 1010.72 1010.09 1009.47 1008.84 1008.22 1007.61 1007.01 1006.44 1005.93 1005.50 1005.18 1005.00 1004.98 1005.14 1005.47 1005.96 1006.59 1007.31 1008.09 1008.88 1009.65 1010.38 1011.05 1011.67 1012.23
1018.95 1018.44 1017.90 1017.35 1016.83 1016.34 1015.89 1015.48 1015.11 1014.75 1014.39 1014.02 1013.62 1013.18 1012.70 1012.18 1011.63 1011.07 1010.48 1009.89 1009.29 1008.68 1008.06 1007.44 1006.83 1006.25 1005.71 1005.26 1004.92 1004.73 1004.71 1004.87 1005.21 1005.72 1006.38 1007.13 1007.95 1008.77 1009.57 1010.32 1011.00 1011.60 1012.15
1018.81 1018.29 1017.73 1017.17 1016.62 1016.09 1015.60 1015.15 1014.72 1014.32 1013.92 1013.52 1013.11 1012.67 1012.22 1011.74 1011.24 1010.73 1010.20 1009.66 1009.10 1008.52 1007.92 1007.30 1006.67 1006.06 1005.48 1004.99 1004.60 1004.37 1004.31 1004.43 1004.76 1005.27 1005.94 1006.72 1007.57 1008.44 1009.29 1010.08 1010.79 1011.43 1011.97
1018.62 1018.10 1017.54 1016.97 1016.40 1015.84 1015.31 1014.80 1014.32 1013.85 1013.41 1012.97 1012.53 1012.10 1011.66 1011.22 1010.78 1010.34 1009.88 1009.40 1008.90 1008.37 1007.79 1007.18 1006.55 1005.90 1005.28 1004.72 1004.27 1003.96 1003.83 1003.89 1004.17 1004.64 1005.29 1006.08 1006.96 1007.87 1008.77 1009.63 1010.40 1011.09 1011.68
1018.39 1017.88 1017.33 1016.76 1016.18 1015.60 1015.02 1014.46 1013.91 1013.39 1012.88 1012.39 1011.93 1011.48 1011.06 1010.66 1010.27 1009.90 1009.52 1009.12 1008.70 1008.22 1007.69 1007.10 1006.46 1005.79 1005.12 1004.50 1003.96 1003.56 1003.34 1003.31 1003.50 1003.91 1004.52 1005.29 1006.17 1007.12 1008.07 1008.99 1009.84 1010.60 1011.26
1018.14 1017.65 1017.12 1016.56 1015.97 1015.36 1014.75 1014.14 1013.53 1012.94 1012.37 1011.83 1011.33 1010.87 1010.46 1010.09 1009.75 1009.44 1009.14 1008.83 1008.48 1008.07 1007.59 1007.03 1006.40 1005.72 1005.02 1004.33 1003.71 1003.22 1002.89 1002.76 1002.86 1003.18 1003.72 1004.44 1005.30 1006.25 1007.24 1008.22 1009.14 1009.98 1010.72
1017.86 1017.40 1016.89 1016.35 1015.76 1015.14 1014.50 1013.84 1013.18 1012.54 1011.91 1011.33 1010.79 1010.32 1009.91 1009.56 1009.26 1009.01 1008.77 1008.53 1008.24 1007.90 1007.47 1006.95 1006.34 1005.66 1004.93 1004.20 1003.53 1002.95 1002.53 1002.30 1002.29 1002.51 1002.96 1003.62 1004.44 1005.37 1006.37 1007.38 1008.35 1009.27 1010.09
1017.57 1017.14 1016.66 1016.13 1015.55 1014.92 1014.26 1013.58 1012.88 1012.20 1011.53 1010.91 1010.35 1009.86 1009.45 1009.11 1008.84 1008.63 1008.43 1008.23 1008.00 1007.70 1007.32 1006.83 1006.24 1005.57 1004.84 1004.09 1003.37 1002.74 1002.25 1001.94 1001.84 1001.97 1002.33 1002.91 1003.66 1004.55 1005.53 1006.54 1007.55 1008.51 1009.40
1017.28 1016.87 1016.41 1015.90 1015.33 1014.71 1014.05 1013.36 1012.65 1011.94 1011.26 1010.62 1010.04 1009.55 1009.13 1008.79 1008.53 1008.32 1008.14 1007.95 1007.74 1007.46 1007.09 1006.62 1006.06 1005.40 1004.68 1003.93 1003.21 1002.56 1002.03 1001.67 1001.51 1001.56 1001.84 1002.34 1003.02 1003.85 1004.78 1005.77 1006.77 1007.74 1008.67
1017.00 1016.60 1016.16 1015.67 1015.12 1014.51 1013.87 1013.18 1012.48 1011.78 1011.11 1010.47 1009.90 1009.39 1008.97 1008.62 1008.34 1008.10 1007.89 1007.68 1007.43 1007.13 1006.75 1006.28 1005.72 1005.08 1004.39 1003.67 1002.97 1002.34 1001.81 1001.44 1001.25 1001.27 1001.50 1001.92 1002.53 1003.29 1004.16 1005.09 1006.05 1007.01 1007.93
1016.75 1016.36 1015.93 1015.46 1014.93 1014.35 1013.73 1013.07 1012.40 1011.73 1011.07 1010.46 1009.90 1009.39 1008.95 1008.57 1008.24 1007.95 1007.67 1007.39 1007.07 1006.71 1006.27 1005.77 1005.20 1004.57 1003.90 1003.22 1002.58 1002.00 1001.52 1001.19 1001.02 1001.03 1001.24 1001.62 1002.17 1002.86 1003.66 1004.52 1005.43 1006.34 1007.23
1016.55 1016.17 1015.75 1015.28 1014.78 1014.23 1013.64 1013.02 1012.39 1011.76 1011.15 1010.56 1010.01 1009.51 1009.04 1008.61 1008.21 1007.83 1007.45 1007.05 1006.62 1006.15 1005.63 1005.07 1004.46 1003.83 1003.19 1002.56 1001.99 1001.49 1001.11 1000.85 1000.74 1000.79 1001.01 1001.38 1001.90 1002.53 1003.26 1004.05 1004.88 1005.73 1006.56
1016.41 1016.03 1015.62 1015.17 1014.68 1014.16 1013.61 1013.03 1012.45 1011.86 1011.29 1010.73 1010.19 1009.67 1009.17 1008.67 1008.19 1007.69 1007.18 1006.63 1006.07 1005.47 1004.84 1004.19 1003.53 1002.88 1002.27 1001.70 1001.21 1000.82 1000.54 1000.39 1000.37 1000.49 1000.75 1001.15 1001.65 1002.25 1002.93 1003.66 1004.43 1005.20 1005.98
1016.34 1015.96 1015.56 1015.12 1014.65 1014.14 1013.62 1013.08 1012.53 1011.98 1011.43 1010.89 1010.35 1009.81 1009.26 1008.69 1008.10 1007.48 1006.83 1006.13 1005.41 1004.67 1003.92 1003.18 1002.47 1001.80 1001.21 1000.70 1000.30 1000.01 999.85 999.82 999.91 1000.13 1000.46 1000.90 1001.42 1002.01 1002.66 1003.34 1004.05 1004.77 1005.49
Thickness
5526 5530 5534 5538 5542 5548 5552 5556 5560 5563 5567 5571 5573 5575 5577 5580 5581 5582 5584 5585 5585 5586 5586 5587 5587 5586 5585 5584 5583 5583 5582 5580 5578 5573 5568 5566 5564 5563 5561 5558 5556 5554 5552
5517 5521 5524 5528 5533 5539 5542 5546 5549 5553 5557 5560 5563 5565 5567 5569 5570 5572 5573 5574 5575 5576 5577 5577 5577 5576 5576 5575 5574 5574 5574 5573 5570 5564 5559 5555 5554 5553 5551 5548 5545 5544 5543
5509 5512 5515 5519 5523 5527 5530 5533 5538 5541 5544 5547 5550 5553 5555 5557 5559 5561 5562 5563 5565 5566 5567 5568 5568 5566 5566 5566 5566 5565 5564 5562 5560 5557 5552 5547 5544 5542 5539 5537 5534 5532 5532
5502 5504 5506 5509 5511 5515 5518 5521 5525 5528 5530 5533 5535 5538 5541 5543 5545 5547 5549 5551 5552 5554 5555 5556 5558 5558 5557 5557 5557 5556 5554 5551 5548 5546 5542 5538 5534 5531 5529 5527 5523 5521 5520
5494 5496 5497 5499 5501 5504 5507 5509 5512 5514 5515 5518 5520 5523 5525 5527 5529 5531 5534 5537 5539 5540 5542 5544 5545 5546 5546 5546 5546 5545 5543 5541 5538 5535 5533 5529 5526 5522 5522 5519 5516 5511 5508
5485 5485 5486 5488 5490 5492 5494 5496 5497 5499 5500 5501 5503 5506 5508 5510 5513 5516 5518 5520 5523 5526 5528 5529 5530 5531 5532 5533 5533 5533 5533 5532 5530 5527 5525 5523 5522 5519 5515 5511 5506 5501 5499
5475 5475 5475 5476 5477 5478 5479 5480 5481 5482 5483 5485 5487 5488 5491 5493 5496 5499 5501 5504 5506 5509 5511 5513 5515 5516 5517 5517 5518 5518 5519 5520 5520 5519 5516 5516 5513 5511 5506 5500 5498 5496 5495
5465 5464 5464 5464 5463 5463 5463 5463 5464 5464 5465 5466 5468 5469 5472 5475 5478 5481 5483 5485 5487 5490 5492 5495 5497 5498 5499 5499 5501 5502 5502 5504 5505 5504 5505 5505 5503 5501 5499 5497 5492 5484 5479
5454 5453 5451 5450 5450 5449 5448 5446 5446 5446 5447 5448 5449 5450 5451 5455 5457 5460 5463 5464 5467 5470 5472 5475 5477 5480 5482 5483 5484 5485 5486 5487 5488 5489 5490 5490 5489 5488 5486 5481 5477 5474 5471
5443 5441 5439 5437 5436 5434 5432 5431 5430 5429 5429 5430 5431 5430 5431 5433 5436 5439 5440 5442 5445 5449 5452 5455 5458 5461 5464 5465 5466 5468 5470 5471 5471 5471 5472 5474 5474 5474 5473 5473 5471 5468 5463
5431 5429 5427 5424 5421 5419 5417 5415 5413 5412 5411 5411 5411 5412 5411 5412 5414 5416 5417 5418 5421 5425 5430 5434 5437 5441 5445 5447 5449 5451 5455 5455 5455 5456 5456 5457 5457 5458 5459 5459 5460 5460 5457
5420 5417 5414 5410 5407 5405 5401 5398 5396 5393 5392 5391 5391 5391 5391 5390 5391 5392 5394 5396 5399 5402 5408 5412 5416 5420 5425 5429 5431 5435 5436 5437 5438 5439 5440 5441 5443 5444 5444 5443 5444 5446 5447
5408 5404 5400 5396 5392 5388 5383 5380 5377 5374 5372 5371 5370 5370 5371 5370 5369 5370 5373 5376 5379 5382 5387 5392 5396 5401 5405 5409 5413 5417 5419 5420 5422 5424 5426 5428 5430 5430 5429 5428 5428 5429 5430
5394 5390 5385 5381 5377 5372 5367 5363 5359 5355 5352 5351 5350 5350 5350 5349 5348 5350 5352 5355 5359 5363 5367 5372 5377 5382 5386 5390 5394 5399 5402 5405 5410 5413 5413 5413 5413 5413 5415 5416 5416 5416 5415
5380 5375 5370 5365 5360 5356 5352 5346 5343 5339 5334 5333 5332 5331 5330 5332 5333 5334 5335 5338 5340 5344 5349 5354 5357 5362 5367 5371 5375 5380 5386 5389 5394 5397 5399 5399 5400 5401 5402 5403 5405 5406 5406
5367 5361 5356 5352 5347 5342 5338 5335 5331 5326 5324 5320 5318 5316 5317 5317 5319 5320 5321 5324 5327 5330 5334 5338 5342 5346 5351 5355 5360 5364 5369 5375 5379 5383 5385 5388 5390 5391 5391 5391 5393 5395 5397
5353 5348 5344 5339 5334 5329 5324 5321 5319 5317 5312 5308 5306 5304 5304 5305 5306 5307 5308 5311 5314 5317 5319 5323 5327 5331 5336 5340 5345 5350 5355 5360 5365 5369 5373 5376 5378 5380 5381 5383 5384 5386 5387
5341 5336 5331 5326 5321 5315 5310 5306 5302 5301 5300 5298 5295 5292 5293 5293 5294 5295 5296 5298 5300 5303 5305 5309 5313 5317 5322 5326 5331 5336 5341 5346 5352 5357 5362 5365 5368 5370 5372 5374 5376 5377 5378
5330 5325 5320 5314 5309 5303 5298 5293 5290 5287 5285 5284 5284 5283 5282 5281 5282 5283 5283 5284 5286 5289 5292 5296 5300 5304 5308 5313 5318 5324 5329 5335 5341 5346 5352 5355 5359 5362 5364 5366 5368 5370 5370
5319 5315 5309 5304 5298 5292 5287 5282 5278 5275 5272 5271 5271 5270 5269 5270 5271 5272 5272 5272 5275 5278 5281 5285 5289 5293 5298 5303 5308 5314 5320 5326 5332 5337 5343 5347 5351 5355 5357 5359 5361 5362 5364
5310 5304 5299 5292 5286 5281 5276 5272 5267 5263 5261 5260 5260 5259 5260 5260 5261 5262 5263 5264 5266 5269 5272 5276 5280 5285 5289 5294 5299 5305 5312 5319 5325 5330 5336 5340 5344 5347 5350 5352 5354 5356 5356
5299 5293 5287 5282 5277 5271 5267 5262 5257 5254 5251 5251 5251 5251 5252 5252 5253 5254 5256 5257 5259 5261 5264 5268 5273 5279 5283 5288 5294 5299 5305 5312 5318 5324 5329 5334 5338 5341 5343 5345 5348 5349 5349
5290 5283 5278 5272 5267 5263 5258 5252 5249 5246 5245 5244 5244 5245 5246 5246 5247 5248 5250 5252 5254 5257 5260 5264 5268 5274 5279 5284 5290 5295 5301 5308 5314 5319 5324 5328 5332 5335 5338 5341 5343 5344 5344
5280 5274 5269 5264 5258 5253 5249 5245 5242 5240 5239 5239 5239 5239 5240 5240 5241 5243 5245 5248 5250 5253 5257 5261 5265 5270 5276 5281 5286 5292 5298 5304 5309 5314 5320 5324 5327 5330 5333 5336 5337 5339 5339
5271 5265 5259 5254 5249 5245 5241 5238 5235 5234 5233 5233 5233 5233 5234 5235 5237 5239 5241 5243 5246 5250 5254 5258 5262 5267 5273 5278 5283 5289 5295 5300 5305 5310 5315 5319 5322 5325 5329 5331 5332 5333 5334
5263 5256 5251 5246 5242 5238 5234 5232 5230 5228 5227 5228 5228 5228 5229 5230 5233 5235 5237 5240 5243 5246 5251 5255 5260 5265 5270 5276 5281 5286 5292 5297 5301 5307 5311 5315 5318 5321 5323 5325 5326 5328 5328